Weather History for Beaufort MCAS, SC

Change the Weather History Date:

Wednesday, May 15, 2013

  Actual Average Record
Temperature  
Mean Temperature 74 °F -  
Max Temperature 88 °F 82 °F 95 °F (1970)
Min Temperature 61 °F 64 °F 51 °F (1939)
Cooling Degree Days 10    
Growing Degree Days 24 (Base 50)    
Moisture  
Dew Point 55 °F    
Average Humidity 56    
Maximum Humidity 80    
Minimum Humidity 36    
Precipitation  
Precipitation 0.00 in - - ()
Sea Level Pressure  
Sea Level Pressure 30.12 in    
Wind  
Wind Speed 8 mph (SW)    
Max Wind Speed 14 mph    
Max Gust Speed 20 mph    
Visibility 10 miles    
Events      
Averages and records for this station are not official NWS values.
T = Trace of Precipitation, MM = Missing Value Source: NWS Daily Summary

Daily Weather History Graph

Daily Weather History Graph

Search for Another Location

Airport:

Trip Planner

Search our weather history database for the weather conditions in past years. The results will help you decide how hot, cold, wet, or windy it might be!

Date:

Astronomy

May. 15, 2013 Rise Set
Actual Time 6:24 AM EDT 8:14 PM EDT
Civil Twilight 5:57 AM EDT 8:41 PM EDT
Nautical Twilight 5:24 AM EDT 9:14 PM EDT
Astronomical Twilight 4:50 AM EDT 9:49 PM EDT
Moon 10:55 AM EDT (5/15) 12:02 AM EDT (5/15)
Length of Visible Light 14h 44m
Length of Day
13h 50m
Waxing Crescent, 26% of the Moon is Illuminated
May 15
Waxing Crescent
May 18
First Quarter
May 25
Full
May 31
Last Quarter
Jun 8
New

Hourly Weather History & Observations

Time (EDT) Temp. Heat Index Dew Point Humidity Pressure Visibility Wind Dir Wind Speed Gust Speed Precip Events Conditions
12:56 AM 64.9 °F - 54.0 °F 68% 30.18 in 10.0 mi SSW 4.6 mph - N/A   Clear
1:56 AM 63.0 °F - 54.0 °F 72% 30.17 in 10.0 mi SW 5.8 mph - N/A   Clear
2:56 AM 62.1 °F - 55.0 °F 78% 30.16 in 10.0 mi SW 6.9 mph - N/A   Clear
3:56 AM 63.0 °F - 55.9 °F 78% 30.16 in 10.0 mi SW 5.8 mph - N/A   Clear
4:56 AM 62.1 °F - 55.9 °F 80% 30.17 in 10.0 mi SW 6.9 mph - N/A   Clear
5:56 AM 61.0 °F - 53.1 °F 75% 30.17 in 10.0 mi WSW 8.1 mph - N/A   Clear
6:56 AM 61.0 °F - 53.1 °F 75% 30.19 in 10.0 mi SW 4.6 mph - N/A   Clear
7:56 AM 64.9 °F - 51.1 °F 61% 30.20 in 10.0 mi WSW 10.4 mph - N/A   Partly Cloudy
8:56 AM 70.0 °F - 51.1 °F 51% 30.20 in 10.0 mi WSW 10.4 mph - N/A   Clear
9:56 AM 73.9 °F - 50.0 °F 43% 30.20 in 10.0 mi West 11.5 mph - N/A   Clear
10:56 AM 77.0 °F - 50.0 °F 39% 30.19 in 10.0 mi West 13.8 mph 19.6 mph N/A   Clear
11:56 AM 80.1 °F - 52.0 °F 38% 30.17 in 10.0 mi West 13.8 mph - N/A   Clear
12:56 PM 82.9 °F 81.9 °F 54.0 °F 37% 30.15 in 10.0 mi WSW 11.5 mph - N/A   Clear
1:56 PM 84.9 °F 83.6 °F 55.0 °F 36% 30.12 in 10.0 mi WSW 11.5 mph - N/A   Clear
2:56 PM 87.1 °F 85.9 °F 57.0 °F 36% 30.09 in 10.0 mi SW 13.8 mph 19.6 mph N/A   Partly Cloudy
3:56 PM 88.0 °F 86.9 °F 57.9 °F 36% 30.06 in 10.0 mi SSW 9.2 mph 18.4 mph N/A   Scattered Clouds
4:56 PM 82.9 °F 83.3 °F 61.0 °F 47% 30.05 in 10.0 mi South 8.1 mph - N/A   Clear
5:56 PM 82.9 °F 83.2 °F 60.1 °F 46% 30.04 in 10.0 mi SSW 10.4 mph 17.3 mph N/A   Clear
6:56 PM 80.1 °F 80.7 °F 59.0 °F 48% 30.04 in 10.0 mi SSW 8.1 mph 19.6 mph N/A   Clear
7:56 PM 75.0 °F - 59.0 °F 57% 30.04 in 10.0 mi South 6.9 mph - N/A   Clear
8:56 PM 73.0 °F - 59.0 °F 61% 30.05 in 10.0 mi SSW 5.8 mph - N/A   Clear
9:56 PM 72.0 °F - 57.0 °F 59% 30.06 in 10.0 mi SSW 5.8 mph - N/A   Clear
10:56 PM 71.1 °F - 57.0 °F 61% 30.07 in 10.0 mi SSW 8.1 mph - N/A   Clear
11:56 PM 70.0 °F - 57.0 °F 63% 30.06 in 10.0 mi SSW 5.8 mph - N/A   Clear